Dewpoint
14 12 21 27 26 27 24 34 31 38 41 44 44 45 54 58 59 59 60 60 61 61 62 63 65 65 66 66 65 64 62 61 61 62 62 61 60 64 67 69 70 70 70 70
10 13 16 22 24 21 21 21 22 21 36 43 43 44 52 57 58 59 59 59 60 61 61 62 64 64 65 65 64 64 63 62 62 63 65 65 65 65 67 69 69 69 68 69
9 11 14 16 15 15 14 14 13 13 39 43 43 43 49 53 57 58 59 59 60 60 60 61 62 63 64 64 63 63 62 62 62 64 66 68 69 69 69 68 68 67 68 69
10 10 10 11 13 13 15 12 11 21 37 35 41 33 43 49 51 51 53 56 58 59 59 60 61 62 62 63 63 62 62 62 63 65 66 66 66 65 67 68 68 68 67 66
9 8 8 7 7 11 9 15 18 26 34 39 38 34 34 46 47 49 50 51 57 59 59 59 60 61 62 63 63 62 62 63 64 65 66 67 67 68 68 68 68 68 68 67
10 13 11 8 10 10 10 20 26 25 22 29 35 34 30 41 43 45 48 49 52 56 59 59 59 61 61 62 63 64 64 64 65 66 66 67 67 67 68 68 68 68 69 68
12 12 13 11 10 15 18 17 18 21 19 16 24 32 30 32 42 44 46 48 49 52 55 57 58 60 61 62 63 64 65 65 65 66 67 67 67 68 68 68 68 68 68 68
10 2 12 13 10 7 15 17 16 13 14 14 21 29 20 24 30 43 46 48 49 50 51 54 56 59 60 62 64 64 65 65 66 67 68 69 69 69 69 69 69 69 69 68
8 6 15 15 14 12 18 17 19 17 18 16 16 19 24 34 35 35 43 47 48 49 50 51 54 57 59 61 63 64 65 65 66 67 69 69 70 70 69 69 69 69 69 68
15 3 18 18 19 20 18 20 17 16 13 12 14 20 17 28 32 37 42 45 47 49 50 51 53 56 57 60 63 64 65 65 66 67 69 69 70 69 68 68 67 67 68 67
20 19 17 20 17 17 19 18 18 19 17 14 14 15 31 32 33 36 41 45 47 49 50 51 53 55 57 59 61 63 64 65 66 68 69 68 68 68 67 66 66 66 66 66
17 13 14 16 20 20 18 18 18 16 19 22 20 18 31 34 35 40 41 44 46 50 51 53 55 57 59 61 62 63 65 67 68 68 68 68 67 66 64 64 64 64 63 64
17 14 11 12 16 20 19 18 20 21 25 23 19 20 31 39 44 49 47 51 52 53 56 59 60 61 62 64 65 66 67 67 67 67 67 67 64 62 61 61 62 63 64 64
19 16 14 11 12 18 17 17 21 18 16 18 21 19 31 40 45 48 52 56 57 59 60 60 60 61 62 64 65 66 66 66 66 65 63 62 61 61 62 63 63 63 64 65
17 16 15 12 13 17 17 17 19 17 17 16 16 21 31 40 45 50 55 58 58 59 59 60 61 61 61 61 61 62 63 64 65 64 64 63 63 63 63 63 63 63 62 62
24 17 18 15 14 17 16 18 19 19 19 19 19 21 29 40 51 53 55 57 57 58 59 61 60 60 60 60 60 61 63 64 65 64 63 63 63 61 60 60 60 60 59 60
17 22 19 16 19 19 16 17 19 19 20 18 18 18 34 38 47 52 56 57 57 58 61 60 59 60 60 61 62 62 63 63 61 60 59 59 59 58 57 57 57 57 58 58
15 23 22 18 21 16 19 21 19 18 19 23 25 28 32 35 51 57 58 57 57 59 62 61 61 62 61 62 62 61 60 58 57 56 57 57 56 55 55 55 56 56 57 57
17 19 21 21 20 20 19 22 20 19 19 23 25 34 44 59 60 60 59 59 57 61 63 62 61 60 60 60 59 57 56 55 55 55 55 55 55 54 55 55 55 56 56 56
23 23 23 23 20 18 21 22 26 23 19 32 35 41 53 56 48 52 61 58 60 62 60 59 58 59 58 57 56 55 53 52 52 52 52 53 54 54 54 54 55 55 56 55
25 26 20 23 19 21 23 23 27 20 21 35 41 47 55 48 46 59 61 60 60 59 58 58 58 57 57 56 54 52 51 49 50 51 52 52 52 53 54 53 54 55 55 54
21 24 24 26 20 17 25 28 21 24 25 38 46 52 54 57 61 61 59 58 58 57 57 58 57 56 55 53 52 50 49 50 50 50 50 51 52 53 53 53 54 54 54 53
22 23 21 24 22 27 31 30 31 28 28 41 48 54 57 60 60 58 57 57 57 57 57 57 55 54 53 51 50 49 49 49 49 48 49 51 51 53 53 51 53 54 54 51
33 35 28 27 30 33 41 45 44 40 38 45 53 58 59 60 59 57 57 56 56 56 55 54 53 51 50 50 49 49 48 48 48 48 49 51 50 51 49 49 50 50 50 50
30 38 37 33 43 45 46 48 48 50 52 55 58 59 59 59 58 57 56 56 55 54 54 53 51 50 48 47 47 48 47 47 47 48 49 50 51 49 49 49 48 49 49 47
34 36 36 30 39 32 34 49 55 53 54 57 58 59 59 58 58 57 56 55 54 53 53 51 49 47 46 46 47 47 47 47 49 47 48 48 48 48 48 47 46 46 46 47
Wind_Speed
2 4 12 11 9 10 8 10 14 12 8 13 17 9 18 20 18 17 16 16 16 18 15 15 17 17 17 17 16 18 18 18 13 11 9 12 16 11 9 9 10 6 7 4
4 14 9 6 8 11 10 9 15 9 9 21 10 10 15 21 24 18 17 17 19 17 14 16 17 16 16 16 15 13 15 12 13 11 7 7 4 9 11 7 6 4 7 7
14 5 8 10 8 7 6 9 7 6 6 3 11 3 13 13 16 15 18 19 20 23 22 18 19 20 17 16 17 18 19 17 15 14 11 7 6 6 7 8 4 4 6 7
7 5 6 2 6 10 15 10 11 10 16 8 5 6 10 19 23 22 23 23 24 25 23 22 23 21 18 18 16 18 20 21 17 15 14 17 15 15 7 7 6 8 5 3
11 10 13 13 14 13 9 2 5 8 11 11 6 1 5 13 23 31 29 26 28 26 27 28 26 23 20 18 21 20 21 19 18 19 20 17 17 16 11 8 11 12 5 2
6 2 5 8 7 18 3 5 15 10 5 7 12 12 7 10 30 29 28 28 29 27 27 26 25 20 21 19 18 18 19 21 22 22 22 22 21 18 15 15 12 10 8 3
2 13 6 5 3 2 4 6 3 3 5 5 4 10 18 17 24 28 34 35 30 28 27 26 22 22 21 23 22 21 21 28 24 23 21 20 19 20 20 17 12 9 6 6
14 9 14 8 17 8 10 9 8 6 8 5 2 8 8 8 16 18 22 31 22 24 25 27 22 25 27 26 24 23 26 28 22 22 22 17 16 17 12 11 15 11 6 8
14 11 4 10 7 16 7 6 6 9 3 2 4 6 14 6 9 6 20 19 23 24 27 29 21 26 27 26 29 29 28 27 21 22 17 17 18 15 15 10 7 8 3 2
7 6 7 4 7 5 5 12 5 2 7 6 4 4 7 11 10 4 16 24 25 20 20 18 24 26 25 26 27 28 25 28 21 19 19 18 19 14 13 11 9 3 3 3
8 3 3 5 8 13 6 5 5 7 5 7 3 4 7 9 10 11 17 19 21 21 21 22 22 23 24 22 22 23 23 20 18 18 19 19 18 15 6 4 1 3 3 5
11 3 8 6 4 1 5 10 10 12 7 2 3 6 6 12 13 10 14 16 11 13 19 22 22 21 21 21 20 21 15 15 13 12 13 15 10 5 4 3 3 6 9 9
15 6 6 4 3 2 5 7 7 9 5 13 11 5 4 5 9 9 12 10 8 15 18 18 18 19 19 16 14 11 10 12 11 11 12 9 6 1 3 8 7 8 9 10
24 11 15 22 8 6 6 8 11 10 9 10 11 10 9 16 18 15 12 8 13 16 20 19 17 16 16 15 15 13 11 11 10 9 5 2 1 4 6 7 9 10 9 7
18 17 16 17 18 11 8 12 14 11 10 14 17 19 26 29 30 19 11 9 16 18 18 17 18 17 18 18 15 13 10 8 5 5 4 2 1 2 3 3 3 5 6 6
1 12 12 25 22 19 19 21 14 8 5 7 5 14 12 11 10 18 20 18 18 19 20 19 20 20 19 17 14 11 10 8 9 10 9 6 6 7 7 8 9 8 8 6
2 11 7 20 7 7 19 30 16 10 8 10 15 22 17 20 25 26 19 14 20 21 24 23 22 20 16 16 16 16 13 12 13 13 10 9 9 10 10 8 8 8 9 11
5 3 10 18 6 17 10 11 25 23 20 18 6 12 27 33 22 15 15 20 21 22 24 23 21 19 17 18 19 18 15 15 14 12 11 11 11 11 11 11 11 11 9 11
18 7 4 11 19 9 10 7 15 16 23 16 16 13 13 18 12 5 15 17 18 22 22 21 19 21 19 19 18 20 17 14 13 12 11 10 10 11 11 13 13 10 11 12
15 8 9 6 10 22 27 10 12 10 26 17 17 24 29 24 22 19 20 20 18 15 21 26 22 21 21 16 19 20 15 12 11 9 8 10 12 11 11 11 10 9 8 8
9 5 22 12 8 10 14 22 12 16 21 19 23 27 32 27 18 20 27 23 20 22 25 22 21 22 18 16 20 18 13 11 8 9 9 9 8 8 7 6 5 6 10 11
16 16 12 6 9 10 10 8 32 20 6 20 22 26 29 13 26 36 32 30 28 27 24 22 23 20 15 16 20 15 12 6 6 6 6 8 8 7 6 8 10 9 10 11
12 12 16 18 15 4 7 5 4 13 14 13 22 18 21 23 25 29 33 31 29 29 27 21 23 20 15 16 15 14 7 6 6 6 7 8 8 9 11 12 11 8 7 9
6 5 8 9 10 11 7 3 2 5 7 17 18 29 29 32 28 28 27 26 24 23 22 21 24 21 19 13 13 13 8 6 6 7 6 5 8 9 9 8 7 7 9 9
6 13 9 7 1 2 4 8 6 8 16 21 23 28 32 35 28 32 31 27 23 22 20 19 20 20 17 15 13 10 8 7 6 6 6 6 5 5 5 6 8 8 5 8
6 10 15 8 13 8 11 9 11 17 21 29 36 29 29 37 35 31 28 25 26 24 22 21 20 20 16 14 12 8 6 7 8 7 6 5 6 7 7 7 7 10 8 3
Wind_Direction
95 177 223 225 149 159 145 188 205 223 198 187 209 203 199 193 209 215 208 205 208 217 220 207 205 201 199 204 206 214 214 218 209 225 236 248 252 265 269 266 273 301 291 252
137 220 219 117 148 153 160 184 234 273 221 192 198 219 200 197 215 218 208 213 215 223 210 210 206 202 201 204 209 219 227 224 215 217 223 223 238 261 259 244 248 227 239 255
195 144 152 174 175 211 230 237 239 227 136 94 149 256 191 219 219 221 223 216 219 215 216 209 208 206 200 200 204 212 218 219 217 214 220 241 252 260 260 275 270 213 214 236
233 218 176 155 210 197 250 219 264 169 162 182 184 246 218 213 216 222 222 210 213 211 217 213 205 205 201 204 202 208 215 215 216 210 226 232 240 251 262 269 286 293 246 249
218 193 198 224 230 183 233 349 332 187 151 126 200 245 244 191 220 224 225 216 214 209 207 211 211 200 196 199 204 206 212 217 219 212 212 219 235 243 242 246 281 295 321 307
204 239 193 199 171 185 139 95 64 80 87 210 188 197 266 197 222 229 220 224 215 212 211 211 209 193 191 197 200 204 206 219 218 217 220 218 223 239 241 246 251 286 322 332
217 244 232 179 345 179 137 114 100 117 216 217 167 181 242 237 237 221 208 217 213 207 208 209 194 186 187 192 194 202 206 222 221 219 226 226 225 230 240 253 247 233 280 288
192 217 207 186 202 188 185 179 167 196 189 174 88 217 246 262 262 237 216 213 213 205 209 210 184 181 191 192 191 197 209 222 218 224 227 227 222 233 233 245 260 243 234 226
172 230 230 198 162 172 178 180 156 114 54 140 202 263 287 265 331 223 209 200 208 204 205 210 179 184 190 188 193 197 209 223 214 215 224 225 219 221 235 243 228 245 83 325
197 198 207 149 127 56 169 149 151 110 176 212 229 256 266 330 330 289 202 203 207 205 202 189 189 190 189 189 195 202 205 216 210 203 208 218 222 214 218 224 255 305 8 306
157 155 193 159 192 167 144 171 79 120 140 185 205 248 216 263 269 236 221 216 206 200 184 189 188 188 188 188 190 199 207 209 201 195 198 212 221 224 219 227 310 32 62 329
196 169 229 195 142 56 171 182 171 194 202 146 158 252 270 264 237 224 224 223 214 195 184 184 178 171 175 181 186 198 201 197 191 179 192 206 212 184 155 123 304 322 316 312
168 216 252 272 251 122 187 183 152 127 118 187 192 212 314 224 197 191 192 196 164 159 157 154 154 161 161 162 157 152 157 179 180 181 194 203 207 216 318 315 316 310 317 322
168 177 205 217 201 171 190 184 176 170 200 193 206 203 198 197 191 189 181 158 139 143 147 146 142 143 143 141 143 150 159 165 170 177 161 149 329 319 318 323 333 327 323 315
178 213 209 226 225 214 225 208 185 193 209 209 233 204 195 196 197 188 176 155 142 140 137 135 138 136 134 134 134 133 132 128 115 112 99 60 47 42 33 9 359 23 23 359
151 219 208 232 228 212 226 240 218 206 194 234 193 226 220 204 153 181 180 161 156 145 139 137 135 141 150 151 148 138 125 110 111 106 97 88 93 89 74 49 36 24 1 344
286 188 185 229 227 172 246 234 230 212 194 194 217 235 173 183 197 197 182 171 159 150 143 142 143 149 148 145 140 133 123 114 106 102 94 83 72 55 39 27 20 4 356 350
208 137 185 225 128 227 252 229 210 221 222 201 182 182 184 190 184 150 165 169 159 152 144 144 140 131 127 124 117 114 112 106 94 75 59 44 36 30 18 15 9 358 353 350
204 182 205 188 217 269 266 206 197 199 236 210 199 177 163 127 110 120 166 168 159 158 147 138 131 128 123 121 118 110 96 88 76 56 39 27 26 20 12 10 1 2 1 1
173 184 200 166 195 222 234 218 211 192 225 188 186 168 158 147 173 202 166 145 140 139 134 130 125 119 120 121 112 102 93 80 62 47 31 23 25 24 13 2 3 359 8 358
150 165 209 206 218 251 236 205 131 195 228 186 184 174 162 175 194 150 137 137 140 135 126 123 120 122 123 118 109 101 94 71 49 43 38 37 26 16 15 9 13 13 15 21
177 170 195 172 197 248 182 142 197 201 216 186 180 177 181 136 135 141 142 139 135 129 124 121 119 118 118 114 105 102 93 80 70 67 54 39 28 27 24 35 21 22 33 20
196 187 187 191 204 245 215 207 268 176 184 176 177 170 152 139 144 143 141 140 140 136 131 125 120 115 104 99 115 118 111 97 82 76 67 60 57 59 54 42 28 6 36 30
218 178 176 155 214 223 214 259 267 202 212 173 162 152 147 141 141 134 130 130 125 123 120 120 121 119 112 115 108 112 122 119 118 106 90 88 81 81 62 60 49 39 28 20
178 162 188 218 234 203 239 205 199 169 140 127 131 143 143 137 139 135 131 132 127 124 125 129 130 123 129 121 115 122 134 141 119 95 88 76 81 70 67 48 41 37 49 47
202 178 187 214 192 176 199 178 158 157 153 145 135 135 142 139 138 136 131 129 131 134 130 131 128 129 126 123 125 128 130 137 123 108 100 77 65 58 59 48 36 48 42 34